Weather History for PATO - April, 2014

Change the Weather History Date:

Friday, April 11, 2014

  Actual Average Record
Temperature  
Mean Temperature 23 °F -  
Max Temperature 39 °F - - ()
Min Temperature 7 °F - - ()
Degree Days  
Heating Degree Days 42    
Moisture  
Dew Point 14 °F    
Average Humidity 66    
Maximum Humidity 96    
Minimum Humidity 38    
Precipitation  
Precipitation 0.00 in - - ()
Sea Level Pressure  
Sea Level Pressure 30.26 in    
Wind  
Wind Speed 3 mph (SE)    
Max Wind Speed 10 mph    
Max Gust Speed 20 mph    
Visibility 10 miles    
Events      
T = Trace of Precipitation, MM = Missing Value Source: NWS Daily Summary

Daily Weather History Graph

Daily Weather History Graph

Search for Another Location

Airport or City:

Trip Planner

Search our weather history database for the weather conditions in past years. The results will help you decide how hot, cold, wet, or windy it might be!

Date:

Astronomy

Apr. 11, 2014 Rise Set
Actual Time 6:47 AM AKDT 9:06 PM AKDT
Civil Twilight 6:01 AM AKDT 9:53 PM AKDT
Nautical Twilight 5:00 AM AKDT 10:55 PM AKDT
Astronomical Twilight 3:37 AM AKDT 12:20 AM AKDT
Moon 5:08 PM AKDT (4/11) 5:42 AM AKDT (4/11)
Length of Visible Light 15h 52m
Length of Day
14h 18m
Waxing Gibbous, 88% of the Moon is Illuminated
Apr 11
Waxing Gibbous
Apr 14
Full
Apr 21
Last Quarter
Apr 28
New
May 6
First Quarter

Hourly Weather History & Observations

Time (AKDT) Temp. Windchill Dew Point Humidity Pressure Visibility Wind Dir Wind Speed Gust Speed Precip Events Conditions
12:53 AM 16.0 °F - 12.9 °F 88% 30.14 in 10.0 mi Calm Calm - N/A   Clear
1:53 AM 14.0 °F - 10.9 °F 88% 30.17 in 10.0 mi Calm Calm - N/A   Clear
2:53 AM 10.9 °F - 10.0 °F 96% 30.18 in 10.0 mi Calm Calm - N/A   Clear
3:53 AM 10.9 °F - 8.1 °F 88% 30.19 in 10.0 mi Calm Calm - N/A   Clear
4:53 AM 9.0 °F - 7.0 °F 92% 30.19 in 10.0 mi Calm Calm - N/A   Clear
5:53 AM 8.1 °F - 6.1 °F 92% 30.20 in 10.0 mi Calm Calm - N/A   Clear
6:53 AM 7.0 °F - 6.1 °F 96% 30.21 in 10.0 mi Calm Calm - N/A   Clear
7:53 AM 9.0 °F - 6.1 °F 88% 30.21 in 10.0 mi Calm Calm - N/A   Clear
8:53 AM 15.1 °F - 12.0 °F 88% 30.23 in 10.0 mi Calm Calm - N/A   Clear
9:53 AM 21.0 °F 16.2 °F 15.1 °F 78% 30.26 in 10.0 mi East 3.5 mph - N/A   Clear
10:53 AM 25.0 °F - 15.1 °F 66% 30.27 in 10.0 mi Calm Calm - N/A   Clear
11:53 AM 30.9 °F 27.5 °F 14.0 °F 50% 30.27 in 10.0 mi SE 3.5 mph - 0.00 in   Clear
12:53 PM 37.9 °F 32.1 °F 14.0 °F 38% 30.27 in 10.0 mi SE 8.1 mph 18.4 mph N/A   Clear
1:53 PM 37.9 °F 31.5 °F 14.0 °F 38% 30.28 in 10.0 mi SE 9.2 mph 18.4 mph N/A   Clear
2:53 PM 39.0 °F 35.7 °F 15.1 °F 38% 30.30 in 10.0 mi Variable 4.6 mph 19.6 mph N/A   Clear
3:53 PM 39.9 °F 33.9 °F 17.1 °F 40% 30.30 in 10.0 mi SE 9.2 mph 17.3 mph N/A   Clear
4:53 PM 39.9 °F 33.4 °F 16.0 °F 38% 30.30 in 10.0 mi SE 10.4 mph 17.3 mph N/A   Clear
5:53 PM 39.0 °F 32.8 °F 17.1 °F 41% 30.30 in 10.0 mi SE 9.2 mph - N/A   Clear
6:53 PM 37.0 °F 31.6 °F 19.9 °F 50% 30.30 in 10.0 mi Variable 6.9 mph 17.3 mph N/A   Clear
7:53 PM 36.0 °F 29.0 °F 21.0 °F 55% 30.31 in 10.0 mi ESE 9.2 mph 18.4 mph N/A   Clear
8:53 PM 35.1 °F 30.1 °F 21.9 °F 59% 30.31 in 10.0 mi SE 5.8 mph - N/A   Clear
9:53 PM 35.1 °F 29.3 °F 21.0 °F 57% 30.32 in 10.0 mi SE 6.9 mph - N/A   Clear
10:53 PM 34.0 °F 27.2 °F 21.9 °F 61% 30.33 in 10.0 mi ESE 8.1 mph - N/A   Clear
11:53 PM 35.1 °F 29.3 °F 24.1 °F 64% 30.32 in 10.0 mi SE 6.9 mph - N/A   Clear